QPF
0.00 0.00 0.00 0.00 0.00 0.00 0.00 0.00 0.00 0.00 0.00 0.00 0.00 0.00 0.00 0.00 0.00 0.00 0.00 0.00 0.00 0.00 0.00 0.00 0.00 0.00 0.00 0.00 0.00 0.00 0.01 0.01 0.01 0.01 0.01 0.02 0.03 0.05
0.00 0.00 0.00 0.00 0.00 0.00 0.00 0.00 0.00 0.00 0.00 0.00 0.00 0.00 0.00 0.00 0.00 0.00 0.00 0.00 0.00 0.00 0.00 0.00 0.00 0.00 0.00 0.00 0.00 0.00 0.00 0.00 0.01 0.01 0.00 0.00 0.01 0.01
0.00 0.00 0.00 0.00 0.00 0.00 0.00 0.00 0.00 0.00 0.00 0.00 0.00 0.00 0.00 0.00 0.00 0.00 0.00 0.00 0.00 0.00 0.00 0.00 0.00 0.00 0.00 0.00 0.00 0.00 0.00 0.00 0.00 0.00 0.00 0.00 0.01 0.01
0.00 0.00 0.00 0.00 0.00 0.00 0.00 0.00 0.00 0.00 0.00 0.00 0.00 0.00 0.00 0.00 0.00 0.00 0.00 0.00 0.00 0.00 0.00 0.00 0.00 0.00 0.00 0.00 0.00 0.00 0.00 0.00 0.00 0.00 0.00 0.00 0.00 0.00
0.00 0.00 0.00 0.00 0.00 0.00 0.00 0.00 0.00 0.00 0.00 0.00 0.00 0.00 0.00 0.00 0.00 0.00 0.00 0.00 0.00 0.00 0.00 0.00 0.00 0.00 0.00 0.00 0.00 0.00 0.00 0.00 0.00 0.00 0.00 0.00 0.00 0.00
0.02 0.01 0.01 0.01 0.00 0.00 0.00 0.00 0.01 0.01 0.01 0.01 0.00 0.00 0.00 0.00 0.00 0.00 0.00 0.00 0.00 0.00 0.00 0.00 0.00 0.00 0.00 0.00 0.00 0.00 0.00 0.00 0.00 0.00 0.00 0.00 0.00 0.00
0.06 0.05 0.03 0.03 0.03 0.03 0.03 0.03 0.03 0.03 0.02 0.01 0.00 0.00 0.00 0.00 0.00 0.00 0.00 0.00 0.00 0.00 0.00 0.00 0.00 0.00 0.00 0.00 0.00 0.00 0.00 0.00 0.00 0.00 0.00 0.00 0.00 0.00
0.10 0.09 0.09 0.09 0.07 0.07 0.06 0.07 0.07 0.06 0.04 0.03 0.02 0.01 0.00 0.00 0.00 0.00 0.00 0.00 0.00 0.00 0.00 0.00 0.00 0.00 0.00 0.00 0.00 0.00 0.00 0.00 0.00 0.00 0.00 0.00 0.00 0.00
0.12 0.10 0.09 0.08 0.08 0.08 0.08 0.08 0.06 0.06 0.05 0.04 0.03 0.01 0.01 0.01 0.01 0.01 0.01 0.01 0.00 0.00 0.00 0.00 0.00 0.00 0.00 0.00 0.00 0.00 0.00 0.00 0.00 0.00 0.00 0.00 0.00 0.00
0.13 0.12 0.10 0.07 0.07 0.07 0.06 0.05 0.03 0.03 0.04 0.04 0.02 0.01 0.01 0.01 0.02 0.02 0.02 0.01 0.01 0.00 0.00 0.00 0.00 0.00 0.00 0.00 0.00 0.00 0.00 0.00 0.00 0.00 0.00 0.00 0.00 0.00
0.12 0.11 0.09 0.06 0.04 0.03 0.03 0.02 0.01 0.01 0.02 0.03 0.02 0.02 0.02 0.03 0.04 0.04 0.03 0.02 0.01 0.00 0.00 0.00 0.00 0.00 0.00 0.00 0.00 0.00 0.00 0.00 0.00 0.00 0.00 0.00 0.00 0.00
0.08 0.08 0.08 0.06 0.05 0.04 0.02 0.02 0.01 0.01 0.02 0.02 0.02 0.02 0.02 0.02 0.04 0.05 0.04 0.04 0.02 0.01 0.01 0.01 0.00 0.00 0.00 0.00 0.00 0.00 0.00 0.00 0.00 0.00 0.00 0.00 0.00 0.00
0.07 0.06 0.05 0.04 0.02 0.02 0.01 0.01 0.01 0.01 0.01 0.01 0.01 0.02 0.02 0.02 0.03 0.03 0.04 0.04 0.03 0.02 0.01 0.02 0.01 0.01 0.01 0.00 0.00 0.00 0.00 0.00 0.00 0.00 0.00 0.00 0.00 0.00
0.02 0.02 0.02 0.01 0.01 0.01 0.00 0.00 0.00 0.00 0.00 0.01 0.01 0.01 0.01 0.02 0.02 0.03 0.04 0.04 0.03 0.02 0.03 0.04 0.04 0.03 0.03 0.02 0.01 0.00 0.00 0.00 0.00 0.00 0.00 0.00 0.00 0.00
0.01 0.01 0.01 0.01 0.01 0.01 0.00 0.01 0.00 0.00 0.00 0.01 0.01 0.01 0.01 0.01 0.02 0.03 0.04 0.05 0.05 0.04 0.04 0.05 0.07 0.06 0.06 0.04 0.02 0.01 0.01 0.01 0.00 0.00 0.00 0.00 0.00 0.00
0.00 0.00 0.00 0.00 0.00 0.00 0.00 0.00 0.00 0.01 0.01 0.01 0.01 0.01 0.01 0.01 0.02 0.02 0.03 0.05 0.06 0.05 0.05 0.06 0.08 0.10 0.09 0.07 0.06 0.04 0.03 0.02 0.01 0.01 0.01 0.00 0.00 0.00
0.00 0.00 0.00 0.00 0.00 0.00 0.00 0.00 0.00 0.00 0.01 0.01 0.01 0.01 0.01 0.01 0.01 0.02 0.03 0.05 0.06 0.05 0.04 0.05 0.08 0.11 0.11 0.11 0.08 0.05 0.04 0.03 0.02 0.02 0.02 0.01 0.01 0.00
0.00 0.00 0.00 0.00 0.00 0.00 0.00 0.00 0.00 0.01 0.01 0.01 0.02 0.02 0.02 0.02 0.02 0.02 0.03 0.05 0.05 0.04 0.04 0.05 0.09 0.13 0.13 0.11 0.09 0.07 0.04 0.03 0.02 0.02 0.02 0.01 0.01 0.00
0.00 0.00 0.00 0.01 0.01 0.01 0.01 0.01 0.01 0.01 0.01 0.02 0.02 0.02 0.03 0.03 0.03 0.03 0.03 0.04 0.05 0.04 0.04 0.06 0.11 0.15 0.13 0.08 0.05 0.08 0.08 0.05 0.05 0.04 0.03 0.02 0.01 0.00
0.00 0.01 0.01 0.01 0.01 0.01 0.01 0.01 0.01 0.01 0.02 0.02 0.04 0.05 0.07 0.07 0.07 0.07 0.06 0.06 0.06 0.06 0.05 0.06 0.09 0.12 0.11 0.08 0.07 0.08 0.10 0.11 0.08 0.06 0.04 0.03 0.02 0.01
0.01 0.01 0.01 0.01 0.01 0.01 0.01 0.01 0.02 0.02 0.02 0.04 0.06 0.08 0.08 0.08 0.07 0.07 0.06 0.06 0.07 0.08 0.07 0.07 0.07 0.10 0.15 0.17 0.14 0.10 0.09 0.10 0.10 0.08 0.07 0.06 0.03 0.02
0.01 0.01 0.01 0.02 0.02 0.02 0.02 0.02 0.02 0.03 0.04 0.06 0.08 0.08 0.08 0.08 0.08 0.09 0.10 0.10 0.10 0.09 0.08 0.07 0.10 0.14 0.17 0.18 0.14 0.10 0.08 0.08 0.09 0.09 0.09 0.08 0.05 0.03
0.01 0.02 0.02 0.02 0.02 0.02 0.03 0.03 0.03 0.04 0.05 0.06 0.06 0.05 0.05 0.06 0.06 0.07 0.08 0.09 0.09 0.08 0.08 0.09 0.10 0.13 0.15 0.15 0.15 0.13 0.12 0.11 0.11 0.09 0.06 0.05 0.04 0.03
MSLP
1018.67 1018.95 1019.27 1019.60 1019.89 1020.11 1020.23 1020.23 1020.13 1019.94 1019.69 1019.41 1019.13 1018.87 1018.64 1018.44 1018.28 1018.16 1018.08 1018.03 1018.03 1018.06 1018.11 1018.19 1018.27 1018.33 1018.36 1018.36 1018.32 1018.26 1018.18 1018.12 1018.09 1018.10 1018.16 1018.28 1018.43 1018.61
1018.42 1018.67 1018.96 1019.26 1019.53 1019.74 1019.87 1019.91 1019.86 1019.73 1019.54 1019.33 1019.09 1018.85 1018.62 1018.41 1018.20 1018.03 1017.88 1017.77 1017.70 1017.68 1017.70 1017.75 1017.82 1017.88 1017.92 1017.93 1017.91 1017.85 1017.78 1017.71 1017.67 1017.67 1017.71 1017.80 1017.93 1018.08
1018.11 1018.33 1018.58 1018.83 1019.07 1019.26 1019.39 1019.44 1019.44 1019.37 1019.25 1019.10 1018.92 1018.72 1018.51 1018.29 1018.06 1017.85 1017.64 1017.47 1017.35 1017.28 1017.26 1017.28 1017.34 1017.40 1017.45 1017.48 1017.48 1017.45 1017.40 1017.35 1017.31 1017.31 1017.35 1017.42 1017.53 1017.66
1017.74 1017.94 1018.15 1018.36 1018.55 1018.71 1018.83 1018.90 1018.93 1018.91 1018.85 1018.77 1018.65 1018.50 1018.31 1018.10 1017.87 1017.62 1017.38 1017.17 1016.99 1016.87 1016.81 1016.80 1016.83 1016.89 1016.94 1016.98 1017.00 1017.00 1016.98 1016.96 1016.95 1016.96 1017.00 1017.08 1017.18 1017.29
1017.36 1017.53 1017.71 1017.88 1018.03 1018.16 1018.26 1018.33 1018.37 1018.39 1018.38 1018.35 1018.29 1018.18 1018.03 1017.84 1017.61 1017.36 1017.09 1016.84 1016.62 1016.45 1016.35 1016.30 1016.30 1016.33 1016.38 1016.42 1016.45 1016.47 1016.47 1016.48 1016.49 1016.53 1016.59 1016.69 1016.80 1016.91
1016.98 1017.14 1017.29 1017.43 1017.55 1017.65 1017.73 1017.79 1017.83 1017.87 1017.89 1017.89 1017.86 1017.79 1017.68 1017.51 1017.29 1017.03 1016.76 1016.48 1016.23 1016.02 1015.87 1015.78 1015.74 1015.74 1015.75 1015.78 1015.80 1015.82 1015.83 1015.86 1015.90 1015.96 1016.05 1016.17 1016.30 1016.44
1016.63 1016.79 1016.93 1017.05 1017.14 1017.21 1017.27 1017.31 1017.34 1017.38 1017.40 1017.41 1017.40 1017.34 1017.24 1017.09 1016.88 1016.63 1016.35 1016.07 1015.79 1015.56 1015.37 1015.23 1015.14 1015.08 1015.05 1015.04 1015.03 1015.03 1015.04 1015.07 1015.12 1015.21 1015.33 1015.48 1015.66 1015.84
1016.36 1016.52 1016.65 1016.75 1016.82 1016.87 1016.90 1016.92 1016.93 1016.93 1016.93 1016.93 1016.90 1016.84 1016.73 1016.58 1016.38 1016.13 1015.86 1015.57 1015.29 1015.03 1014.81 1014.62 1014.48 1014.37 1014.29 1014.22 1014.16 1014.13 1014.11 1014.13 1014.19 1014.29 1014.44 1014.63 1014.84 1015.07
1016.19 1016.34 1016.46 1016.56 1016.61 1016.64 1016.64 1016.62 1016.59 1016.55 1016.50 1016.45 1016.38 1016.28 1016.15 1015.98 1015.77 1015.52 1015.25 1014.97 1014.68 1014.42 1014.18 1013.96 1013.78 1013.62 1013.47 1013.35 1013.24 1013.15 1013.10 1013.10 1013.14 1013.25 1013.42 1013.64 1013.90 1014.18
1016.13 1016.28 1016.39 1016.47 1016.52 1016.52 1016.48 1016.42 1016.33 1016.23 1016.11 1015.98 1015.84 1015.68 1015.50 1015.29 1015.06 1014.80 1014.53 1014.26 1013.99 1013.73 1013.48 1013.25 1013.04 1012.83 1012.64 1012.47 1012.30 1012.17 1012.08 1012.04 1012.07 1012.17 1012.35 1012.59 1012.88 1013.20
1016.20 1016.33 1016.43 1016.49 1016.51 1016.48 1016.41 1016.29 1016.13 1015.95 1015.75 1015.53 1015.30 1015.06 1014.80 1014.54 1014.28 1014.01 1013.73 1013.47 1013.21 1012.96 1012.73 1012.50 1012.27 1012.05 1011.83 1011.62 1011.42 1011.24 1011.11 1011.04 1011.05 1011.14 1011.31 1011.55 1011.85 1012.19
1016.39 1016.48 1016.55 1016.58 1016.57 1016.50 1016.37 1016.19 1015.97 1015.70 1015.40 1015.09 1014.76 1014.43 1014.10 1013.78 1013.46 1013.17 1012.89 1012.62 1012.38 1012.15 1011.94 1011.72 1011.51 1011.29 1011.06 1010.83 1010.60 1010.40 1010.24 1010.15 1010.12 1010.19 1010.34 1010.57 1010.86 1011.19
1016.66 1016.70 1016.72 1016.70 1016.64 1016.53 1016.34 1016.10 1015.80 1015.45 1015.07 1014.66 1014.24 1013.82 1013.41 1013.02 1012.66 1012.33 1012.03 1011.77 1011.54 1011.33 1011.13 1010.94 1010.74 1010.53 1010.31 1010.08 1009.85 1009.64 1009.46 1009.34 1009.30 1009.33 1009.46 1009.66 1009.92 1010.23
1016.96 1016.93 1016.89 1016.81 1016.69 1016.52 1016.28 1015.97 1015.60 1015.18 1014.72 1014.23 1013.73 1013.24 1012.76 1012.31 1011.90 1011.53 1011.21 1010.94 1010.70 1010.50 1010.32 1010.14 1009.96 1009.77 1009.56 1009.34 1009.12 1008.90 1008.73 1008.60 1008.53 1008.54 1008.63 1008.79 1009.01 1009.27
1017.22 1017.11 1017.00 1016.85 1016.66 1016.43 1016.13 1015.77 1015.34 1014.87 1014.35 1013.81 1013.25 1012.70 1012.16 1011.66 1011.21 1010.80 1010.45 1010.14 1009.89 1009.67 1009.48 1009.30 1009.13 1008.94 1008.75 1008.54 1008.33 1008.13 1007.95 1007.82 1007.74 1007.73 1007.79 1007.91 1008.08 1008.29
1017.39 1017.20 1017.01 1016.79 1016.53 1016.23 1015.87 1015.46 1015.00 1014.49 1013.94 1013.36 1012.77 1012.19 1011.62 1011.09 1010.59 1010.14 1009.74 1009.39 1009.09 1008.84 1008.61 1008.40 1008.21 1008.02 1007.82 1007.61 1007.41 1007.23 1007.06 1006.93 1006.85 1006.82 1006.86 1006.95 1007.08 1007.24
1017.44 1017.17 1016.90 1016.60 1016.27 1015.91 1015.51 1015.06 1014.57 1014.04 1013.48 1012.90 1012.30 1011.71 1011.13 1010.56 1010.03 1009.53 1009.07 1008.66 1008.30 1007.97 1007.68 1007.42 1007.18 1006.95 1006.73 1006.52 1006.32 1006.14 1005.99 1005.87 1005.79 1005.77 1005.79 1005.85 1005.96 1006.09
1017.35 1017.02 1016.67 1016.31 1015.92 1015.50 1015.06 1014.58 1014.08 1013.55 1012.99 1012.42 1011.84 1011.25 1010.66 1010.08 1009.51 1008.96 1008.44 1007.95 1007.49 1007.08 1006.69 1006.35 1006.03 1005.75 1005.49 1005.26 1005.05 1004.87 1004.73 1004.62 1004.55 1004.53 1004.56 1004.62 1004.71 1004.83
1017.18 1016.79 1016.38 1015.96 1015.51 1015.05 1014.57 1014.07 1013.56 1013.04 1012.50 1011.95 1011.38 1010.81 1010.22 1009.62 1009.01 1008.41 1007.82 1007.23 1006.68 1006.15 1005.66 1005.22 1004.81 1004.45 1004.14 1003.87 1003.64 1003.46 1003.32 1003.22 1003.17 1003.17 1003.20 1003.27 1003.38 1003.50
1016.97 1016.53 1016.08 1015.60 1015.11 1014.61 1014.10 1013.59 1013.07 1012.55 1012.03 1011.49 1010.95 1010.38 1009.79 1009.18 1008.54 1007.88 1007.20 1006.53 1005.87 1005.23 1004.63 1004.08 1003.58 1003.14 1002.76 1002.44 1002.19 1002.00 1001.86 1001.78 1001.74 1001.75 1001.80 1001.89 1002.01 1002.16
1016.78 1016.31 1015.82 1015.31 1014.78 1014.24 1013.70 1013.17 1012.64 1012.12 1011.61 1011.08 1010.55 1009.98 1009.39 1008.75 1008.07 1007.36 1006.62 1005.86 1005.10 1004.36 1003.66 1003.01 1002.42 1001.90 1001.46 1001.10 1000.82 1000.61 1000.47 1000.39 1000.37 1000.39 1000.46 1000.57 1000.70 1000.87
1016.66 1016.17 1015.65 1015.10 1014.54 1013.97 1013.40 1012.84 1012.30 1011.77 1011.25 1010.72 1010.18 1009.61 1009.00 1008.34 1007.63 1006.87 1006.07 1005.24 1004.40 1003.58 1002.80 1002.07 1001.41 1000.83 1000.35 999.95 999.64 999.42 999.27 999.19 999.16 999.19 999.27 999.38 999.53 999.71
1016.62 1016.12 1015.57 1014.99 1014.40 1013.79 1013.20 1012.61 1012.05 1011.50 1010.96 1010.41 1009.86 1009.27 1008.64 1007.96 1007.21 1006.41 1005.57 1004.69 1003.81 1002.94 1002.10 1001.32 1000.62 1000.00 999.48 999.05 998.73 998.49 998.32 998.23 998.20 998.23 998.29 998.41 998.56 998.74
Thickness
5711 5710 5708 5707 5706 5705 5703 5700 5693 5687 5688 5695 5699 5704 5704 5703 5702 5701 5700 5699 5698 5697 5696 5696 5695 5694 5694 5693 5693 5692 5692 5691 5691 5691 5691 5691 5691 5691
5707 5705 5704 5703 5702 5700 5698 5696 5693 5688 5684 5690 5694 5698 5699 5698 5697 5696 5696 5696 5695 5694 5694 5693 5692 5691 5691 5690 5690 5690 5689 5689 5688 5688 5688 5687 5687 5687
5702 5700 5699 5698 5696 5694 5693 5691 5688 5685 5681 5685 5688 5692 5692 5692 5692 5691 5691 5690 5690 5690 5690 5690 5689 5689 5688 5688 5687 5687 5686 5685 5685 5684 5684 5684 5684 5684
5696 5695 5693 5693 5690 5689 5687 5685 5683 5681 5678 5677 5681 5683 5685 5686 5686 5686 5686 5686 5686 5686 5687 5686 5686 5686 5686 5685 5684 5684 5683 5682 5682 5681 5680 5680 5680 5679
5692 5690 5688 5686 5684 5683 5681 5679 5678 5678 5675 5673 5674 5676 5677 5678 5678 5679 5681 5681 5682 5682 5682 5682 5683 5683 5683 5682 5681 5681 5680 5679 5678 5677 5676 5676 5675 5675
5688 5686 5684 5682 5680 5678 5676 5675 5673 5671 5669 5668 5668 5668 5669 5671 5669 5669 5670 5673 5675 5677 5678 5678 5678 5678 5678 5678 5678 5677 5676 5675 5674 5673 5673 5672 5671 5670
5681 5680 5680 5678 5676 5674 5672 5670 5667 5665 5663 5661 5661 5661 5662 5660 5660 5661 5662 5665 5667 5669 5670 5671 5672 5672 5673 5672 5672 5672 5671 5671 5670 5669 5669 5668 5667 5666
5674 5673 5673 5671 5670 5668 5666 5665 5662 5659 5657 5655 5654 5653 5656 5655 5654 5653 5652 5652 5655 5661 5659 5663 5664 5664 5666 5666 5666 5666 5666 5666 5665 5665 5664 5664 5663 5662
5664 5662 5662 5661 5658 5657 5655 5655 5653 5652 5650 5648 5646 5647 5648 5647 5645 5643 5643 5644 5649 5653 5649 5653 5655 5656 5660 5660 5660 5660 5660 5660 5660 5660 5660 5659 5658 5658
5651 5650 5647 5645 5644 5642 5642 5641 5640 5640 5638 5637 5637 5638 5639 5639 5636 5636 5636 5637 5641 5642 5641 5641 5647 5648 5652 5653 5654 5654 5654 5655 5655 5655 5655 5654 5654 5653
5638 5636 5634 5631 5629 5627 5626 5626 5627 5627 5628 5627 5627 5627 5627 5626 5624 5622 5622 5622 5628 5633 5631 5631 5637 5638 5641 5644 5647 5647 5648 5649 5649 5650 5650 5649 5649 5648
5623 5620 5619 5617 5615 5612 5611 5610 5611 5613 5613 5615 5614 5615 5614 5614 5613 5610 5610 5609 5614 5619 5623 5619 5624 5623 5627 5636 5638 5639 5640 5642 5643 5643 5644 5644 5643 5640
5607 5604 5603 5601 5600 5597 5595 5593 5594 5595 5595 5595 5597 5598 5599 5599 5599 5598 5596 5596 5599 5605 5609 5606 5609 5609 5611 5620 5624 5628 5630 5633 5634 5635 5636 5636 5636 5633
5591 5588 5587 5585 5583 5581 5579 5578 5577 5576 5575 5575 5576 5578 5579 5581 5582 5581 5581 5581 5584 5589 5593 5590 5591 5594 5595 5601 5607 5613 5617 5621 5623 5625 5627 5628 5628 5627
5574 5572 5570 5568 5566 5563 5561 5559 5557 5555 5553 5553 5554 5557 5557 5559 5560 5562 5563 5564 5567 5571 5574 5574 5575 5577 5578 5584 5591 5595 5599 5606 5609 5612 5615 5617 5618 5618
5554 5552 5550 5548 5545 5543 5541 5538 5535 5533 5531 5531 5532 5534 5534 5535 5536 5538 5540 5542 5546 5554 5557 5557 5558 5559 5562 5568 5572 5579 5584 5589 5596 5599 5602 5606 5609 5611
5534 5530 5527 5524 5522 5520 5517 5515 5513 5511 5510 5510 5510 5512 5513 5515 5517 5518 5519 5521 5524 5531 5538 5540 5540 5542 5546 5550 5556 5564 5569 5575 5582 5585 5587 5592 5599 5602
5514 5509 5506 5503 5501 5499 5497 5495 5493 5491 5490 5491 5492 5493 5495 5498 5501 5502 5502 5503 5507 5513 5518 5522 5522 5524 5528 5537 5544 5549 5555 5562 5568 5572 5575 5579 5588 5594
5495 5491 5488 5486 5484 5482 5480 5478 5478 5477 5476 5476 5478 5479 5481 5483 5486 5488 5490 5491 5494 5498 5503 5505 5506 5507 5512 5524 5538 5538 5542 5550 5555 5560 5565 5571 5579 5587
5478 5475 5473 5471 5469 5468 5466 5465 5465 5465 5465 5466 5467 5469 5470 5472 5475 5478 5480 5482 5484 5488 5492 5495 5496 5497 5501 5511 5522 5530 5534 5538 5544 5550 5556 5562 5569 5575
5464 5462 5460 5459 5458 5457 5457 5456 5456 5457 5457 5458 5459 5460 5462 5463 5466 5469 5471 5474 5475 5480 5484 5490 5492 5493 5495 5499 5508 5522 5529 5532 5538 5543 5548 5551 5556 5562
5453 5452 5451 5450 5450 5450 5450 5450 5451 5451 5451 5452 5454 5454 5456 5457 5459 5462 5465 5468 5471 5475 5479 5484 5487 5487 5489 5495 5505 5514 5521 5526 5532 5538 5543 5548 5551 5557
5445 5444 5444 5444 5444 5444 5445 5446 5446 5446 5446 5447 5448 5449 5451 5452 5455 5457 5461 5463 5467 5471 5475 5479 5483 5485 5489 5494 5501 5509 5515 5520 5525 5530 5537 5544 5549 5555